TIANLIAN 2-05

Last updated on Tue Sep 22 2026 00:03:16 GMT+0000 (Coordinated Universal Time)

1 63662U 25084A 26264.13676912 .00000116 00000+0 00000+0 0 9993 2 63662 4.2162 278.8001 0001095 209.9110 300.9739 1.00272490 5341
UTC large
Height (km)
Speed (km/s)
/
Latitude / Longitude
Inclination (degrees)
Orbital Period (minutes)
Azimuth
Elevation
Range (km)
Doppler Factor

Next 0 passes for location: London (51.5072 / 0.1276)

No passes found over London.
TIANLIAN 2-05